Date,TemperatureHighF,TemperatureAvgF,TemperatureLowF,DewpointHighF,DewpointAvgF,DewpointLowF,HumidityHigh,HumidityAvg,HumidityLow,PressureMaxIn,PressureMinIn,WindSpeedMaxMPH,WindSpeedAvgMPH,GustSpeedMaxMPH,PrecipitationSumIn
2013-1-1,29,23,15,29,22,14,100,94,84,0.00,40.00,16,6,24,0.00
2013-1-2,28,21,12,24,18,11,94,89,78,0.00,40.00,17,5,24,0.00
2013-1-3,34,24,13,25,18,11,94,75,65,0.00,40.00,11,1,14,0.00
2013-1-4,39,32,22,30,24,18,84,73,59,0.00,40.00,18,4,25,0.00
2013-1-5,34,27,19,27,23,17,93,85,72,0.00,40.00,9,3,16,0.00
2013-1-6,40,30,19,30,23,17,93,77,62,0.00,40.00,14,6,20,0.00
2013-1-7,35,30,26,30,25,22,99,81,67,0.00,40.00,21,7,25,0.00
2013-1-8,38,32,25,34,28,19,100,87,72,0.00,40.00,15,5,32,0.00
2013-1-9,44,36,24,34,30,22,90,77,64,0.00,40.00,13,5,30,0.00
2013-1-10,41,27,9,33,24,8,98,89,70,0.00,40.00,12,4,16,0.00
2013-1-11,9,5,0,9,4,-1,98,96,94,0.00,40.00,13,6,24,0.00
2013-1-12,12,4,-2,10,2,-4,96,91,87,0.00,40.00,9,3,13,0.00
2013-1-13,10,6,1,9,5,0,98,95,92,0.00,40.00,8,2,10,0.00
2013-1-14,21,12,4,18,11,4,98,93,85,0.00,40.00,9,3,14,0.00
2013-1-15,41,32,20,34,28,18,100,87,73,0.00,40.00,17,10,26,0.00
2013-1-16,40,38,37,33,32,30,80,76,74,0.00,40.00,17,7,20,0.00
2013-1-17,43,36,25,32,30,23,94,80,62,0.00,40.00,19,5,21,0.00
2013-1-18,45,42,40,31,30,28,65,60,54,0.00,40.00,19,8,23,0.00
2013-1-19,37,20,17,30,18,16,96,93,75,0.00,40.00,10,2,13,0.00
2013-1-20,18,4,-2,17,2,-4,98,94,90,0.00,40.00,11,3,16,0.00
2013-1-21,9,4,0,8,3,-2,96,95,93,0.00,40.00,8,2,11,0.00
2013-1-22,26,15,8,21,13,7,97,92,81,0.00,40.00,7,1,10,0.00
2013-1-23,11,8,8,9,7,6,94,94,93,0.00,40.00,14,9,17,0.00
2013-1-24,42,28,11,33,24,10,95,87,69,0.00,40.00,11,6,25,0.00
2013-1-25,47,35,25,37,29,23,92,82,65,0.00,40.00,5,1,9,0.00
2013-1-26,44,38,32,38,34,31,95,86,74,0.00,40.00,7,1,10,0.00
2013-1-27,37,32,27,32,29,27,100,91,73,0.00,40.00,11,3,15,0.00
2013-1-28,36,30,26,28,25,22,91,83,67,0.00,40.00,9,3,11,0.00
2013-1-29,26,7,-5,22,4,-7,94,90,85,0.00,40.00,11,4,18,0.00
2013-1-30,5,1,-6,4,0,-7,95,94,91,0.00,40.00,9,3,19,0.00
2013-1-31,13,2,-12,11,0,-14,95,92,90,0.00,40.00,6,2,11,0.00